Weather History for Butte, MT

Change the Weather History Date:

Sunday, June 16, 2013

  Actual Average Record
Temperature  
Mean Temperature 57 °F 56 °F  
Max Temperature 77 °F 70 °F 89 °F (1933)
Min Temperature 36 °F 41 °F 28 °F (2004)
Degree Days  
Heating Degree Days 8 9  
Month to date heating degree days 162 182  
Since 1 June heating degree days 162 182  
Since 1 July heating degree days 8949 9114  
Cooling Degree Days 0 0  
Month to date cooling degree days 0 0  
Year to date cooling degree days 0 0  
Since 1 June cooling degree days 0 0  
Growing Degree Days 7 (Base 50)    
Moisture  
Dew Point 32 °F    
Average Humidity 50    
Maximum Humidity 85    
Minimum Humidity 15    
Precipitation  
Precipitation T in 0.08 in 1.22 in (2010)
Month to date precipitation 1.10 1.39  
Year to date precipitation 4.41 6.30  
Sea Level Pressure  
Sea Level Pressure 30.03 in    
Wind  
Wind Speed 6 mph (NE)    
Max Wind Speed 24 mph    
Max Gust Speed 37 mph    
Visibility 10 miles    
Events Rain    
T = Trace of Precipitation, MM = Missing Value Source: NWS Daily Summary

Daily Weather History Graph

Daily Weather History Graph

Search for Another Location

Airport:

Trip Planner

Search our weather history database for the weather conditions in past years. The results will help you decide how hot, cold, wet, or windy it might be!

Date:

Astronomy

Jun. 16, 2013 Rise Set
Actual Time 5:38 AM MDT 9:22 PM MDT
Civil Twilight 5:00 AM MDT 10:01 PM MDT
Nautical Twilight 4:08 AM MDT 10:53 PM MDT
Astronomical Twilight 2:56 AM MDT 12:05 AM MDT
Moon 1:42 PM MDT (6/16) 1:07 AM MDT (6/16)
Length of Visible Light 17h 01m
Length of Day
15h 44m
Waxing Crescent, 50% of the Moon is Illuminated
Jun 16
Waxing Crescent
Jun 23
Full
Jun 29
Last Quarter
Jul 8
New
Jul 15
First Quarter

Hourly Weather History & Observations

Time (MDT) Temp. Windchill Dew Point Humidity Pressure Visibility Wind Dir Wind Speed Gust Speed Precip Events Conditions
12:53 AM 45.0 °F 42.6 °F 36.0 °F 71% 30.05 in 10.0 mi ESE 4.6 mph - N/A   Clear
1:53 AM 43.0 °F 39.5 °F 35.1 °F 74% 30.05 in 10.0 mi SE 5.8 mph - N/A   Clear
2:53 AM 41.0 °F 37.1 °F 34.0 °F 76% 30.06 in 10.0 mi ESE 5.8 mph - N/A   Clear
3:53 AM 39.9 °F 36.7 °F 33.1 °F 77% 30.06 in 10.0 mi ESE 4.6 mph - N/A   Clear
4:53 AM 39.9 °F 35.1 °F 32.0 °F 73% 30.06 in 10.0 mi SE 6.9 mph - N/A   Clear
5:53 AM 37.9 °F 35.5 °F 33.1 °F 83% 30.06 in 10.0 mi ESE 3.5 mph - N/A   Clear
6:53 AM 39.0 °F - 34.0 °F 82% 30.07 in 10.0 mi Calm Calm - N/A   Clear
7:53 AM 46.0 °F - 35.1 °F 66% 30.06 in 10.0 mi Calm Calm - N/A   Clear
8:53 AM 53.1 °F - 34.0 °F 48% 30.05 in 10.0 mi Calm Calm - N/A   Clear
9:53 AM 61.0 °F - 32.0 °F 34% 30.03 in 10.0 mi North 3.5 mph - N/A   Clear
10:53 AM 66.9 °F - 32.0 °F 27% 30.02 in 10.0 mi Calm Calm - N/A   Clear
11:53 AM 70.0 °F - 30.0 °F 23% 30.01 in 10.0 mi NW 3.5 mph - N/A   Clear
12:53 PM 72.0 °F - 28.9 °F 20% 30.01 in 10.0 mi NNW 6.9 mph - N/A   Clear
1:53 PM 75.0 °F - 26.1 °F 16% 30.00 in 10.0 mi NNE 8.1 mph - N/A   Clear
2:53 PM 73.9 °F - 26.1 °F 17% 29.99 in 10.0 mi NW 11.5 mph 17.3 mph N/A   Partly Cloudy
3:53 PM 77.0 °F - 27.0 °F 16% 29.98 in 10.0 mi Variable 5.8 mph - N/A   Mostly Cloudy
4:53 PM 75.9 °F - 27.0 °F 16% 29.99 in 10.0 mi WNW 11.5 mph - N/A   Clear
5:53 PM 75.9 °F - 28.0 °F 17% 29.99 in 10.0 mi NNW 11.5 mph - N/A   Clear
6:53 PM 75.0 °F - 28.0 °F 18% 30.00 in 10.0 mi Variable 4.6 mph - N/A   Scattered Clouds
7:53 PM 71.1 °F - 33.1 °F 25% 30.00 in 10.0 mi ESE 9.2 mph - N/A   Overcast
8:53 PM 66.0 °F - 35.1 °F 32% 30.02 in 10.0 mi NNW 16.1 mph 36.8 mph 0.00 in Rain Light Rain
9:53 PM 62.1 °F - 39.0 °F 43% 30.03 in 10.0 mi NNE 18.4 mph 26.5 mph 0.00 in   Scattered Clouds
10:53 PM 62.1 °F - 37.9 °F 41% 30.03 in 10.0 mi Calm Calm - N/A   Scattered Clouds
11:53 PM 57.0 °F - 39.9 °F 53% 30.03 in 10.0 mi SSW 5.8 mph - N/A   Mostly Cloudy